| time (UTC) | temp F | wind direction | speed MPH | gust MPH | rain 1hr in | rain 24hr in | rain mn in | humidity % | barometer mb |
| 20260508054040 | 60 | 359 | 2.0 | 4.0 | 0.00 | 0.00 | 0.00 | 31 | 1010.9 |
| 20260508053019 | 60 | 5 | 2.0 | 3.0 | 0.00 | 0.00 | 0.00 | 31 | 1010.9 |
| 20260508052019 | 61 | 354 | 1.0 | 3.0 | 0.00 | 0.00 | 0.00 | 31 | 1011.0 |
| 20260508051020 | 61 | 345 | 1.0 | 3.0 | 0.00 | 0.00 | 0.00 | 30 | 1011.0 |
| 20260508050020 | 61 | 345 | 1.0 | 4.0 | 0.00 | 0.00 | 0.00 | 30 | 1011.0 |
| 20260508045016 | 61 | 353 | 1.0 | 3.0 | 0.00 | 0.00 | 0.00 | 29 | 1011.0 |
| 20260508044021 | 61 | 356 | 2.0 | 3.0 | 0.00 | 0.00 | 0.00 | 30 | 1011.0 |
| 20260508043019 | 62 | 355 | 0.0 | 3.0 | 0.00 | 0.00 | 0.00 | 29 | 1011.0 |
| 20260508042039 | 62 | 0.0 | 0.0 | 0.00 | 0.00 | 0.00 | 28 | 1010.9 | |
| 20260508041017 | 62 | 3 | 0.0 | 2.0 | 0.00 | 0.00 | 0.00 | 29 | 1010.9 |
| 20260508040017 | 62 | 307 | 0.0 | 3.0 | 0.00 | 0.00 | 0.00 | 28 | 1010.8 |
| 20260508035017 | 63 | 5 | 0.0 | 2.0 | 0.00 | 0.00 | 0.00 | 29 | 1010.9 |
| 20260508034017 | 63 | 0.0 | 0.0 | 0.00 | 0.00 | 0.00 | 29 | 1010.9 | |
| 20260508033019 | 63 | 0.0 | 0.0 | 0.00 | 0.00 | 0.00 | 29 | 1010.9 | |
| 20260508032017 | 64 | 81 | 0.0 | 1.0 | 0.00 | 0.00 | 0.00 | 28 | 1010.8 |
| 20260508031040 | 65 | 91 | 0.0 | 2.0 | 0.00 | 0.00 | 0.00 | 28 | 1010.8 |
| 20260508030018 | 66 | 84 | 1.0 | 3.0 | 0.00 | 0.00 | 0.00 | 27 | 1011.0 |
| 20260508025018 | 67 | 41 | 0.0 | 3.0 | 0.00 | 0.00 | 0.00 | 27 | 1011.0 |
| 20260508024038 | 68 | 358 | 0.0 | 2.0 | 0.00 | 0.00 | 0.00 | 26 | 1011.0 |
| 20260508023018 | 68 | 337 | 1.0 | 3.0 | 0.00 | 0.00 | 0.00 | 25 | 1011.0 |
| 20260508022020 | 68 | 323 | 0.0 | 3.0 | 0.00 | 0.00 | 0.00 | 25 | 1011.0 |
| 20260508021016 | 70 | 310 | 2.0 | 5.0 | 0.00 | 0.00 | 0.00 | 23 | 1011.0 |
| 20260508020020 | 71 | 274 | 2.0 | 6.0 | 0.00 | 0.00 | 0.00 | 22 | 1011.1 |
| 20260508015019 | 71 | 263 | 1.0 | 4.0 | 0.00 | 0.00 | 0.00 | 22 | 1011.1 |
| 20260508014020 | 71 | 195 | 2.0 | 5.0 | 0.00 | 0.00 | 0.00 | 23 | 1011.2 |
| 20260508013018 | 71 | 241 | 2.0 | 4.0 | 0.00 | 0.00 | 0.00 | 22 | 1011.2 |
| 20260508012037 | 71 | 56 | 1.0 | 4.0 | 0.00 | 0.00 | 0.00 | 22 | 1011.3 |
| 20260508011018 | 71 | 212 | 2.0 | 5.0 | 0.00 | 0.00 | 0.00 | 22 | 1011.4 |
| 20260508010018 | 70 | 105 | 2.0 | 4.0 | 0.00 | 0.00 | 0.00 | 22 | 1011.4 |
| 20260508005017 | 70 | 220 | 2.0 | 4.0 | 0.00 | 0.00 | 0.00 | 23 | 1011.6 |
| 20260508004018 | 69 | 252 | 0.0 | 2.0 | 0.00 | 0.00 | 0.00 | 24 | 1011.6 |
| 20260508003018 | 69 | 352 | 1.0 | 3.0 | 0.00 | 0.00 | 0.00 | 24 | 1011.6 |
| 20260508002018 | 69 | 261 | 3.0 | 7.0 | 0.00 | 0.00 | 0.00 | 23 | 1011.7 |
| 20260508001018 | 70 | 245 | 3.0 | 8.0 | 0.00 | 0.00 | 0.00 | 23 | 1011.7 |
| 20260508000018 | 70 | 201 | 3.0 | 5.0 | 0.00 | 0.00 | 0.00 | 24 | 1011.9 |
| 20260507235038 | 70 | 46 | 2.0 | 7.0 | 0.00 | 0.00 | 0.00 | 24 | 1011.9 |
| 20260507234018 | 70 | 230 | 2.0 | 7.0 | 0.00 | 0.00 | 0.00 | 25 | 1012.0 |
| 20260507233021 | 70 | 244 | 3.0 | 8.0 | 0.00 | 0.00 | 0.00 | 24 | 1012.1 |
| 20260507232100 | 69 | 207 | 2.0 | 5.0 | 0.00 | 0.00 | 0.00 | 24 | 1012.2 |
| 20260507231016 | 70 | 229 | 3.0 | 10.0 | 0.00 | 0.00 | 0.00 | 24 | 1012.3 |
| 20260507230019 | 69 | 241 | 4.0 | 9.0 | 0.00 | 0.00 | 0.00 | 24 | 1012.4 |
| 20260507225041 | 68 | 270 | 2.0 | 6.0 | 0.00 | 0.00 | 0.00 | 23 | 1012.6 |
| 20260507224020 | 69 | 226 | 3.0 | 9.0 | 0.00 | 0.00 | 0.00 | 23 | 1012.7 |
| 20260507223017 | 69 | 287 | 3.0 | 9.0 | 0.00 | 0.00 | 0.00 | 23 | 1012.8 |
| 20260507222038 | 68 | 280 | 4.0 | 10.0 | 0.00 | 0.00 | 0.00 | 23 | 1012.9 |
| 20260507221017 | 68 | 245 | 3.0 | 10.0 | 0.00 | 0.00 | 0.00 | 24 | 1013.0 |
| 20260507220022 | 68 | 290 | 3.0 | 8.0 | 0.00 | 0.00 | 0.00 | 24 | 1013.1 |
| 20260507215019 | 68 | 306 | 2.0 | 6.0 | 0.00 | 0.00 | 0.00 | 23 | 1013.2 |
| 20260507214018 | 68 | 232 | 1.0 | 5.0 | 0.00 | 0.00 | 0.00 | 24 | 1013.4 |
| 20260507213020 | 67 | 305 | 2.0 | 5.0 | 0.00 | 0.00 | 0.00 | 26 | 1013.4 |
| 20260507212018 | 67 | 314 | 2.0 | 9.0 | 0.00 | 0.00 | 0.00 | 25 | 1013.5 |
| 20260507211019 | 66 | 238 | 2.0 | 8.0 | 0.00 | 0.00 | 0.00 | 25 | 1013.6 |
| 20260507210018 | 65 | 258 | 4.0 | 9.0 | 0.00 | 0.00 | 0.00 | 26 | 1013.8 |
| 20260507205019 | 65 | 245 | 3.0 | 11.0 | 0.00 | 0.00 | 0.00 | 27 | 1013.9 |
| 20260507204018 | 65 | 274 | 2.0 | 6.0 | 0.00 | 0.00 | 0.00 | 28 | 1014.0 |
| 20260507203019 | 64 | 287 | 2.0 | 6.0 | 0.00 | 0.00 | 0.00 | 29 | 1014.1 |
| 20260507202016 | 64 | 301 | 4.0 | 8.0 | 0.00 | 0.00 | 0.00 | 29 | 1014.1 |
| 20260507201036 | 64 | 281 | 4.0 | 9.0 | 0.00 | 0.00 | 0.00 | 30 | 1014.1 |
| 20260507200019 | 64 | 269 | 4.0 | 11.0 | 0.00 | 0.00 | 0.00 | 31 | 1014.2 |
| 20260507195020 | 63 | 259 | 2.0 | 6.0 | 0.00 | 0.00 | 0.00 | 34 | 1014.3 |
| 20260507194017 | 63 | 262 | 3.0 | 7.0 | 0.00 | 0.00 | 0.00 | 35 | 1014.3 |
| 20260507193139 | 62 | 268 | 3.0 | 7.0 | 0.00 | 0.00 | 0.00 | 36 | 1014.4 |
| 20260507192017 | 62 | 353 | 1.0 | 6.0 | 0.00 | 0.00 | 0.00 | 36 | 1014.6 |
| 20260507191019 | 61 | 280 | 3.0 | 6.0 | 0.00 | 0.00 | 0.00 | 37 | 1014.7 |
| 20260507190019 | 60 | 280 | 3.0 | 8.0 | 0.00 | 0.00 | 0.00 | 39 | 1014.8 |
| 20260507185018 | 60 | 233 | 2.0 | 6.0 | 0.00 | 0.00 | 0.00 | 40 | 1014.8 |
| 20260507184018 | 59 | 274 | 3.0 | 10.0 | 0.00 | 0.00 | 0.00 | 41 | 1014.9 |
| 20260507183018 | 58 | 260 | 3.0 | 8.0 | 0.00 | 0.00 | 0.00 | 43 | 1015.1 |
| 20260507182018 | 58 | 243 | 3.0 | 8.0 | 0.00 | 0.00 | 0.00 | 44 | 1015.2 |
| 20260507181018 | 57 | 261 | 2.0 | 6.0 | 0.00 | 0.00 | 0.00 | 45 | 1015.3 |
| 20260507180019 | 56 | 293 | 2.0 | 9.0 | 0.00 | 0.00 | 0.00 | 46 | 1015.4 |
| 20260507175019 | 56 | 261 | 3.0 | 7.0 | 0.00 | 0.00 | 0.00 | 47 | 1015.4 |
| 20260507174019 | 55 | 317 | 3.0 | 6.0 | 0.00 | 0.00 | 0.00 | 48 | 1015.5 |
| 20260507173019 | 55 | 305 | 3.0 | 7.0 | 0.00 | 0.00 | 0.00 | 48 | 1015.6 |
| 20260507172016 | 54 | 255 | 2.0 | 6.0 | 0.00 | 0.00 | 0.00 | 50 | 1015.8 |
| 20260507171016 | 54 | 271 | 3.0 | 8.0 | 0.00 | 0.00 | 0.00 | 50 | 1015.7 |
| 20260507170019 | 53 | 216 | 2.0 | 5.0 | 0.00 | 0.00 | 0.00 | 52 | 1015.8 |
| 20260507165020 | 53 | 293 | 2.0 | 4.0 | 0.00 | 0.00 | 0.00 | 52 | 1016.0 |
| 20260507164017 | 52 | 250 | 2.0 | 4.0 | 0.00 | 0.00 | 0.00 | 53 | 1016.1 |
| 20260507163017 | 51 | 236 | 2.0 | 5.0 | 0.00 | 0.00 | 0.00 | 55 | 1016.2 |
| 20260507162039 | 51 | 265 | 3.0 | 5.0 | 0.00 | 0.00 | 0.00 | 55 | 1016.2 |
| 20260507161018 | 51 | 254 | 2.0 | 6.0 | 0.00 | 0.00 | 0.00 | 57 | 1016.3 |
| 20260507160018 | 51 | 260 | 3.0 | 5.0 | 0.00 | 0.00 | 0.00 | 57 | 1016.2 |
| 20260507155018 | 50 | 279 | 2.0 | 5.0 | 0.00 | 0.00 | 0.00 | 58 | 1016.2 |
| 20260507154018 | 50 | 260 | 2.0 | 4.0 | 0.00 | 0.00 | 0.00 | 59 | 1016.2 |
| 20260507153019 | 49 | 268 | 3.0 | 4.0 | 0.00 | 0.00 | 0.00 | 60 | 1016.2 |
| 20260507152038 | 48 | 288 | 3.0 | 6.0 | 0.00 | 0.00 | 0.00 | 62 | 1016.4 |
| 20260507151038 | 48 | 253 | 3.0 | 6.0 | 0.00 | 0.00 | 0.00 | 63 | 1016.5 |
| 20260507150019 | 47 | 250 | 3.0 | 7.0 | 0.00 | 0.00 | 0.00 | 64 | 1016.5 |
| 20260507145020 | 47 | 238 | 2.0 | 5.0 | 0.00 | 0.00 | 0.00 | 65 | 1016.4 |
| 20260507144019 | 47 | 262 | 3.0 | 8.0 | 0.00 | 0.00 | 0.00 | 66 | 1016.4 |
| 20260507143019 | 46 | 250 | 2.0 | 5.0 | 0.00 | 0.00 | 0.00 | 66 | 1016.4 |
| 20260507142038 | 46 | 255 | 3.0 | 8.0 | 0.00 | 0.00 | 0.00 | 66 | 1016.3 |
| 20260507141043 | 46 | 252 | 3.0 | 4.0 | 0.00 | 0.00 | 0.00 | 67 | 1016.1 |
| 20260507140017 | 45 | 264 | 2.0 | 4.0 | 0.00 | 0.00 | 0.00 | 68 | 1016.1 |
| 20260507135020 | 45 | 234 | 2.0 | 5.0 | 0.00 | 0.00 | 0.00 | 68 | 1016.0 |
| 20260507134017 | 45 | 255 | 2.0 | 4.0 | 0.00 | 0.00 | 0.00 | 68 | 1016.0 |
| 20260507133017 | 45 | 274 | 2.0 | 4.0 | 0.00 | 0.00 | 0.00 | 69 | 1015.9 |
| 20260507132020 | 44 | 272 | 1.0 | 5.0 | 0.00 | 0.00 | 0.00 | 69 | 1015.9 |
| 20260507131020 | 45 | 290 | 1.0 | 4.0 | 0.00 | 0.00 | 0.00 | 68 | 1015.8 |
| 20260507130019 | 46 | 268 | 0.0 | 2.0 | 0.00 | 0.00 | 0.00 | 68 | 1015.7 |
| 20260507125018 | 46 | 254 | 2.0 | 5.0 | 0.00 | 0.00 | 0.00 | 66 | 1015.6 |
| 20260507124019 | 47 | 263 | 2.0 | 6.0 | 0.00 | 0.00 | 0.00 | 64 | 1015.5 |
| 20260507123018 | 47 | 255 | 3.0 | 6.0 | 0.00 | 0.00 | 0.00 | 64 | 1015.5 |
| 20260507122040 | 47 | 250 | 2.0 | 6.0 | 0.00 | 0.00 | 0.00 | 64 | 1015.5 |
| 20260507121019 | 47 | 255 | 2.0 | 4.0 | 0.00 | 0.00 | 0.00 | 63 | 1015.4 |
| 20260507120020 | 47 | 265 | 2.0 | 6.0 | 0.00 | 0.00 | 0.00 | 62 | 1015.3 |
| 20260507115021 | 47 | 253 | 2.0 | 6.0 | 0.00 | 0.00 | 0.00 | 63 | 1015.2 |
| 20260507114021 | 47 | 244 | 2.0 | 5.0 | 0.00 | 0.00 | 0.00 | 63 | 1015.0 |
| 20260507113017 | 48 | 255 | 2.0 | 5.0 | 0.00 | 0.00 | 0.00 | 62 | 1015.0 |
| 20260507112019 | 48 | 242 | 3.0 | 6.0 | 0.00 | 0.00 | 0.00 | 62 | 1014.9 |
| 20260507111020 | 48 | 238 | 2.0 | 5.0 | 0.00 | 0.00 | 0.00 | 61 | 1014.9 |
| 20260507110041 | 48 | 258 | 2.0 | 4.0 | 0.00 | 0.00 | 0.00 | 61 | 1015.0 |
| 20260507105022 | 48 | 225 | 2.0 | 6.0 | 0.00 | 0.00 | 0.00 | 61 | 1014.8 |
| 20260507104018 | 48 | 253 | 3.0 | 7.0 | 0.00 | 0.00 | 0.00 | 60 | 1014.6 |
| 20260507103017 | 48 | 235 | 3.0 | 8.0 | 0.00 | 0.00 | 0.00 | 60 | 1014.5 |
| 20260507102020 | 48 | 268 | 3.0 | 6.0 | 0.00 | 0.00 | 0.00 | 59 | 1014.6 |
| 20260507101021 | 48 | 234 | 3.0 | 5.0 | 0.00 | 0.00 | 0.00 | 60 | 1014.5 |
| 20260507100019 | 49 | 232 | 1.0 | 3.0 | 0.00 | 0.00 | 0.00 | 59 | 1014.4 |
| 20260507095018 | 48 | 247 | 3.0 | 7.0 | 0.00 | 0.00 | 0.00 | 59 | 1014.3 |
| 20260507094018 | 49 | 229 | 2.0 | 7.0 | 0.00 | 0.00 | 0.00 | 58 | 1014.3 |
| 20260507093018 | 49 | 265 | 2.0 | 6.0 | 0.00 | 0.00 | 0.00 | 57 | 1014.1 |
| 20260507092019 | 50 | 280 | 2.0 | 6.0 | 0.00 | 0.00 | 0.00 | 56 | 1013.9 |
| 20260507091018 | 50 | 293 | 2.0 | 4.0 | 0.00 | 0.00 | 0.00 | 54 | 1013.8 |
| 20260507090039 | 50 | 310 | 2.0 | 5.0 | 0.00 | 0.00 | 0.00 | 53 | 1013.7 |
| 20260507085021 | 50 | 289 | 3.0 | 7.0 | 0.00 | 0.00 | 0.00 | 53 | 1013.7 |
| 20260507084021 | 50 | 272 | 2.0 | 5.0 | 0.00 | 0.00 | 0.00 | 52 | 1013.6 |
| 20260507083037 | 50 | 265 | 2.0 | 6.0 | 0.00 | 0.00 | 0.00 | 51 | 1013.5 |
| 20260507082041 | 50 | 246 | 2.0 | 5.0 | 0.00 | 0.00 | 0.00 | 51 | 1013.6 |
| 20260507081020 | 50 | 285 | 1.0 | 3.0 | 0.00 | 0.00 | 0.00 | 50 | 1013.6 |
| 20260507080020 | 51 | 307 | 1.0 | 3.0 | 0.00 | 0.00 | 0.00 | 49 | 1013.5 |
| 20260507075021 | 51 | 320 | 2.0 | 4.0 | 0.00 | 0.00 | 0.00 | 48 | 1013.4 |
| 20260507074017 | 52 | 274 | 2.0 | 6.0 | 0.00 | 0.00 | 0.00 | 47 | 1013.3 |
| 20260507073037 | 52 | 306 | 1.0 | 4.0 | 0.00 | 0.00 | 0.00 | 46 | 1013.2 |
| 20260507072042 | 52 | 328 | 2.0 | 7.0 | 0.00 | 0.00 | 0.00 | 47 | 1013.0 |
| 20260507071021 | 52 | 332 | 2.0 | 5.0 | 0.00 | 0.00 | 0.00 | 49 | 1012.9 |
| 20260507070018 | 52 | 318 | 2.0 | 4.0 | 0.00 | 0.00 | 0.00 | 49 | 1012.8 |
| 20260507065038 | 52 | 343 | 2.0 | 4.0 | 0.00 | 0.00 | 0.00 | 50 | 1012.8 |
| 20260507064018 | 52 | 333 | 2.0 | 4.0 | 0.00 | 0.00 | 0.00 | 49 | 1012.7 |
| 20260507063020 | 52 | 316 | 2.0 | 3.0 | 0.00 | 0.00 | 0.00 | 48 | 1012.7 |
| 20260507062019 | 53 | 338 | 2.0 | 3.0 | 0.00 | 0.00 | 0.00 | 47 | 1012.6 |
| 20260507061019 | 53 | 327 | 1.0 | 3.0 | 0.00 | 0.00 | 0.00 | 46 | 1012.6 |
| 20260507060019 | 54 | 340 | 2.0 | 3.0 | 0.00 | 0.00 | 0.00 | 46 | 1012.5 |
| 20260507055021 | 54 | 198 | 0.0 | 2.0 | 0.00 | 0.00 | 0.00 | 44 | 1012.5 |